Time,TemperatureF,DewpointF,PressureIn,WindDirection,WindDirectionDegrees,WindSpeedMPH,WindSpeedGustMPH,Humidity,HourlyPrecipIn,Conditions,Clouds,dailyrainin,SoftwareType,DateUTC
2013-05-14 00:01:00,57.4,52.9,30.04,NE,43,0.0,0.0,85,0.00,,,0.00,VWS V13.01,2013-05-14 05:01:00,
2013-05-14 00:06:00,57.2,53.0,30.04,NE,43,0.0,0.0,86,0.00,,,0.00,VWS V13.01,2013-05-14 05:06:00,
2013-05-14 00:11:00,57.2,52.7,30.04,NE,43,0.0,0.0,85,0.00,,,0.00,VWS V13.01,2013-05-14 05:11:00,
2013-05-14 00:16:00,57.2,52.7,30.04,NE,46,0.0,0.0,85,0.00,,,0.00,VWS V13.01,2013-05-14 05:16:00,
2013-05-14 00:21:00,57.2,52.7,30.04,ENE,73,0.0,0.0,85,0.00,,,0.00,VWS V13.01,2013-05-14 05:21:00,
2013-05-14 00:25:00,57.0,52.5,30.04,ENE,73,0.0,0.0,85,0.00,,,0.00,VWS V13.01,2013-05-14 05:25:00,
2013-05-14 00:30:00,57.0,52.5,30.04,ENE,73,0.0,0.0,85,0.00,,,0.00,VWS V13.01,2013-05-14 05:30:00,
2013-05-14 00:35:00,56.8,52.7,30.04,ENE,73,0.0,0.0,86,0.00,,,0.00,VWS V13.01,2013-05-14 05:35:00,
2013-05-14 00:40:00,56.8,52.7,30.04,ENE,73,0.0,0.0,86,0.00,,,0.00,VWS V13.01,2013-05-14 05:40:00,
2013-05-14 00:45:00,56.8,52.7,30.04,ENE,73,0.0,0.0,86,0.00,,,0.00,VWS V13.01,2013-05-14 05:45:00,
2013-05-14 00:50:00,56.6,52.5,30.04,ENE,73,0.0,0.0,86,0.00,,,0.00,VWS V13.01,2013-05-14 05:50:00,
2013-05-14 00:55:00,56.5,52.6,30.04,ENE,73,0.0,0.0,87,0.00,,,0.00,VWS V13.01,2013-05-14 05:55:00,
2013-05-14 01:00:00,56.3,52.8,30.04,ENE,73,0.0,0.0,88,0.00,,,0.00,VWS V13.01,2013-05-14 06:00:00,
2013-05-14 01:05:00,56.1,52.6,30.04,ENE,73,0.0,0.0,88,0.00,,,0.00,VWS V13.01,2013-05-14 06:05:00,
2013-05-14 01:10:00,56.1,52.6,30.04,ENE,73,0.0,0.0,88,0.00,,,0.00,VWS V13.01,2013-05-14 06:10:00,
2013-05-14 01:15:00,55.9,52.4,30.04,ENE,73,0.0,0.0,88,0.00,,,0.00,VWS V13.01,2013-05-14 06:15:00,
2013-05-14 01:20:00,55.7,52.2,30.04,ENE,73,0.0,0.0,88,0.00,,,0.00,VWS V13.01,2013-05-14 06:20:00,
2013-05-14 01:25:00,55.6,52.7,30.04,ENE,73,0.0,0.0,90,0.00,,,0.00,VWS V13.01,2013-05-14 06:25:00,
2013-05-14 01:30:00,55.4,52.5,30.04,ENE,73,0.0,0.0,90,0.00,,,0.00,VWS V13.01,2013-05-14 06:30:00,
2013-05-14 01:35:00,55.4,52.5,30.04,ENE,73,0.0,0.0,90,0.00,,,0.00,VWS V13.01,2013-05-14 06:35:00,
2013-05-14 01:40:00,55.2,52.3,30.04,ENE,73,0.0,0.0,90,0.00,,,0.00,VWS V13.01,2013-05-14 06:40:00,
2013-05-14 01:45:00,55.0,52.5,30.04,ENE,73,0.0,0.0,91,0.00,,,0.00,VWS V13.01,2013-05-14 06:45:00,
2013-05-14 01:50:00,54.8,52.6,30.04,ENE,73,0.0,0.0,92,0.00,,,0.00,VWS V13.01,2013-05-14 06:50:00,
2013-05-14 01:55:00,54.8,52.6,30.04,ENE,73,0.0,0.0,92,0.00,,,0.00,VWS V13.01,2013-05-14 06:55:00,
2013-05-14 02:00:00,54.7,52.7,30.04,ENE,73,0.0,0.0,93,0.00,,,0.00,VWS V13.01,2013-05-14 07:00:00,
2013-05-14 02:05:00,54.5,52.5,30.04,ENE,73,0.0,0.0,93,0.00,,,0.00,VWS V13.01,2013-05-14 07:05:00,
2013-05-14 02:10:00,54.5,52.8,30.04,ENE,73,0.0,0.0,94,0.00,,,0.00,VWS V13.01,2013-05-14 07:10:00,
2013-05-14 02:15:00,54.3,52.6,30.04,ENE,73,0.0,0.0,94,0.00,,,0.00,VWS V13.01,2013-05-14 07:15:00,
2013-05-14 02:20:00,54.3,52.6,30.04,ENE,73,0.0,0.0,94,0.00,,,0.00,VWS V13.01,2013-05-14 07:20:00,
2013-05-14 02:25:00,54.3,52.9,30.04,ENE,73,0.0,0.0,95,0.00,,,0.00,VWS V13.01,2013-05-14 07:25:00,
2013-05-14 02:30:00,54.1,52.7,30.04,ENE,73,0.0,0.0,95,0.00,,,0.00,VWS V13.01,2013-05-14 07:30:00,
2013-05-14 02:35:00,53.9,52.5,30.04,ENE,73,0.0,0.0,95,0.00,,,0.00,VWS V13.01,2013-05-14 07:35:00,
2013-05-14 02:40:00,53.8,52.4,30.04,ENE,73,0.0,0.0,95,0.00,,,0.00,VWS V13.01,2013-05-14 07:40:00,
2013-05-14 02:45:00,53.8,52.7,30.04,ENE,73,0.0,0.0,96,0.00,,,0.00,VWS V13.01,2013-05-14 07:45:00,
2013-05-14 02:50:00,53.6,52.5,30.04,ENE,73,0.0,0.0,96,0.00,,,0.00,VWS V13.01,2013-05-14 07:50:00,
2013-05-14 02:55:00,53.4,52.6,30.04,ENE,73,0.0,0.0,97,0.00,,,0.00,VWS V13.01,2013-05-14 07:55:00,
2013-05-14 03:00:00,53.4,52.6,30.01,ENE,73,0.0,0.0,97,0.00,,,0.00,VWS V13.01,2013-05-14 08:00:00,
2013-05-14 03:05:00,53.4,52.8,30.01,ENE,73,0.0,0.0,98,0.00,,,0.00,VWS V13.01,2013-05-14 08:05:00,
2013-05-14 03:10:00,53.2,53.2,30.01,ENE,73,0.0,0.0,100,0.00,,,0.00,VWS V13.01,2013-05-14 08:10:00,
2013-05-14 03:15:00,53.0,53.0,30.01,ENE,73,0.0,0.0,100,0.00,,,0.00,VWS V13.01,2013-05-14 08:15:00,
2013-05-14 03:20:00,52.9,52.9,30.01,ENE,73,0.0,0.0,100,0.00,,,0.00,VWS V13.01,2013-05-14 08:20:00,
2013-05-14 03:25:00,52.7,52.7,30.01,ENE,73,0.0,0.0,100,0.00,,,0.00,VWS V13.01,2013-05-14 08:25:00,
2013-05-14 03:30:00,52.7,52.7,30.01,ENE,73,0.0,0.0,100,0.00,,,0.00,VWS V13.01,2013-05-14 08:30:00,
2013-05-14 03:35:00,52.5,52.5,30.01,ENE,73,0.0,0.0,100,0.00,,,0.00,VWS V13.01,2013-05-14 08:35:00,
2013-05-14 03:40:00,52.5,52.5,30.01,ENE,73,0.0,0.0,100,0.00,,,0.00,VWS V13.01,2013-05-14 08:40:00,
2013-05-14 03:45:00,52.3,52.3,30.01,ENE,73,0.0,0.0,100,0.00,,,0.00,VWS V13.01,2013-05-14 08:45:00,
2013-05-14 03:50:00,52.3,52.3,30.01,ENE,73,0.0,0.0,100,0.00,,,0.00,VWS V13.01,2013-05-14 08:50:00,
2013-05-14 03:55:00,52.1,52.1,30.01,ENE,73,0.0,0.0,100,0.00,,,0.00,VWS V13.01,2013-05-14 08:55:00,
2013-05-14 04:00:00,52.1,52.1,30.01,ENE,73,0.0,0.0,100,0.00,,,0.00,VWS V13.01,2013-05-14 09:00:00,
2013-05-14 04:05:00,52.0,52.0,30.01,ENE,73,0.0,0.0,100,0.00,,,0.00,VWS V13.01,2013-05-14 09:05:00,
2013-05-14 04:10:00,52.0,52.0,30.01,ENE,73,0.0,0.0,100,0.00,,,0.00,VWS V13.01,2013-05-14 09:10:00,
2013-05-14 04:15:00,52.0,52.0,30.01,ENE,73,0.0,0.0,100,0.00,,,0.00,VWS V13.01,2013-05-14 09:15:00,
2013-05-14 04:20:00,52.0,52.0,30.01,ENE,73,0.0,0.0,100,0.00,,,0.00,VWS V13.01,2013-05-14 09:20:00,
2013-05-14 04:25:00,51.8,51.8,30.01,ENE,73,0.0,0.0,100,0.00,,,0.00,VWS V13.01,2013-05-14 09:25:00,
2013-05-14 04:30:00,51.6,51.6,30.01,ENE,73,0.0,0.0,100,0.00,,,0.00,VWS V13.01,2013-05-14 09:30:00,
2013-05-14 04:35:00,51.6,51.6,30.01,ENE,73,0.0,0.0,100,0.00,,,0.00,VWS V13.01,2013-05-14 09:35:00,
2013-05-14 04:40:00,51.4,51.4,30.01,ENE,73,0.0,0.0,100,0.00,,,0.00,VWS V13.01,2013-05-14 09:40:00,
2013-05-14 04:45:00,51.1,51.1,30.04,ENE,73,0.0,0.0,100,0.00,,,0.00,VWS V13.01,2013-05-14 09:45:00,
2013-05-14 04:50:00,51.1,51.1,30.04,ENE,73,0.0,0.0,100,0.00,,,0.00,VWS V13.01,2013-05-14 09:50:00,
2013-05-14 04:55:00,50.9,50.9,30.04,ENE,73,0.0,0.0,100,0.00,,,0.00,VWS V13.01,2013-05-14 09:55:00,
2013-05-14 05:00:00,50.9,50.9,30.04,ENE,73,0.0,0.0,100,0.00,,,0.00,VWS V13.01,2013-05-14 10:00:00,
2013-05-14 05:05:00,50.7,50.7,30.04,ENE,73,0.0,0.0,100,0.00,,,0.00,VWS V13.01,2013-05-14 10:05:00,
2013-05-14 05:10:00,50.7,50.7,30.04,ENE,73,0.0,0.0,100,0.00,,,0.00,VWS V13.01,2013-05-14 10:10:00,
2013-05-14 05:15:00,50.7,50.7,30.04,ENE,73,0.0,0.0,100,0.00,,,0.00,VWS V13.01,2013-05-14 10:15:00,
2013-05-14 05:20:00,50.5,50.5,30.04,ENE,73,0.0,0.0,100,0.00,,,0.00,VWS V13.01,2013-05-14 10:20:00,
2013-05-14 05:25:00,50.5,50.5,30.04,ENE,73,0.0,0.0,100,0.00,,,0.00,VWS V13.01,2013-05-14 10:25:00,
2013-05-14 05:30:00,50.5,50.5,30.01,ENE,73,0.0,0.0,100,0.00,,,0.00,VWS V13.01,2013-05-14 10:30:00,
2013-05-14 05:35:00,50.5,50.5,30.01,ENE,73,0.0,0.0,100,0.00,,,0.00,VWS V13.01,2013-05-14 10:35:00,
2013-05-14 05:40:00,50.3,50.3,30.01,ENE,73,0.0,0.0,100,0.00,,,0.00,VWS V13.01,2013-05-14 10:40:00,
2013-05-14 05:45:00,50.5,50.5,30.04,ENE,73,0.0,0.0,100,0.00,,,0.00,VWS V13.01,2013-05-14 10:45:00,
2013-05-14 05:50:00,50.3,50.3,30.04,ENE,73,0.0,0.0,100,0.00,,,0.00,VWS V13.01,2013-05-14 10:50:00,
2013-05-14 05:55:00,50.3,50.3,30.04,ENE,73,0.0,0.0,100,0.00,,,0.00,VWS V13.01,2013-05-14 10:55:00,
2013-05-14 06:00:00,50.2,50.2,30.04,ENE,73,0.0,0.0,100,0.00,,,0.00,VWS V13.01,2013-05-14 11:00:00,
2013-05-14 06:05:00,50.2,50.2,30.04,ENE,73,0.0,0.0,100,0.00,,,0.00,VWS V13.01,2013-05-14 11:05:00,
2013-05-14 06:10:00,50.0,50.0,30.04,ENE,73,0.0,0.0,100,0.00,,,0.00,VWS V13.01,2013-05-14 11:10:00,
2013-05-14 06:15:00,50.0,50.0,30.04,ENE,73,0.0,0.0,100,0.00,,,0.00,VWS V13.01,2013-05-14 11:15:00,
2013-05-14 06:20:00,50.0,50.0,30.04,ENE,73,0.0,0.0,100,0.00,,,0.00,VWS V13.01,2013-05-14 11:20:00,
2013-05-14 06:25:00,49.8,49.8,30.04,ENE,73,0.0,0.0,100,0.00,,,0.00,VWS V13.01,2013-05-14 11:25:00,
2013-05-14 06:30:00,49.6,49.6,30.04,ENE,73,0.0,0.0,100,0.00,,,0.00,VWS V13.01,2013-05-14 11:30:00,
2013-05-14 06:35:00,49.6,49.6,30.04,ENE,73,0.0,0.0,100,0.00,,,0.00,VWS V13.01,2013-05-14 11:35:00,
2013-05-14 06:40:00,49.6,49.6,30.04,ENE,73,0.0,0.0,100,0.00,,,0.00,VWS V13.01,2013-05-14 11:40:00,
2013-05-14 06:45:00,49.6,49.6,30.04,ENE,73,0.0,0.0,100,0.00,,,0.00,VWS V13.01,2013-05-14 11:45:00,
2013-05-14 06:49:00,49.6,49.6,30.04,ENE,73,0.0,0.0,100,0.00,,,0.00,VWS V13.01,2013-05-14 11:49:00,
2013-05-14 06:54:00,49.8,49.8,30.04,ENE,73,0.0,0.0,100,0.00,,,0.00,VWS V13.01,2013-05-14 11:54:00,
2013-05-14 06:59:00,50.2,50.2,30.04,ENE,73,0.0,0.0,100,0.00,,,0.00,VWS V13.01,2013-05-14 11:59:00,
2013-05-14 07:04:00,50.3,50.3,30.04,ENE,73,0.0,0.0,100,0.00,,,0.00,VWS V13.01,2013-05-14 12:04:00,
2013-05-14 07:09:00,50.5,50.5,30.04,ENE,73,0.0,0.0,100,0.00,,,0.00,VWS V13.01,2013-05-14 12:09:00,
2013-05-14 07:14:00,50.9,50.9,30.04,ENE,73,0.0,0.0,100,0.00,,,0.00,VWS V13.01,2013-05-14 12:14:00,
2013-05-14 07:19:00,51.1,51.1,30.04,ENE,73,0.0,0.0,100,0.00,,,0.00,VWS V13.01,2013-05-14 12:19:00,
2013-05-14 07:24:00,51.4,51.4,30.04,ENE,73,0.0,0.0,100,0.00,,,0.00,VWS V13.01,2013-05-14 12:24:00,
2013-05-14 07:29:00,51.8,51.8,30.07,ENE,73,0.0,0.0,100,0.00,,,0.00,VWS V13.01,2013-05-14 12:29:00,
2013-05-14 07:34:00,52.3,52.3,30.07,ENE,73,0.0,0.0,100,0.00,,,0.00,VWS V13.01,2013-05-14 12:34:00,
2013-05-14 07:39:00,52.9,52.9,30.07,ENE,73,0.0,0.0,100,0.00,,,0.00,VWS V13.01,2013-05-14 12:39:00,
2013-05-14 07:44:00,53.6,53.6,30.07,ENE,73,0.0,0.0,100,0.00,,,0.00,VWS V13.01,2013-05-14 12:44:00,
2013-05-14 07:49:00,54.3,54.3,30.07,ENE,73,0.0,0.0,100,0.00,,,0.00,VWS V13.01,2013-05-14 12:49:00,
2013-05-14 07:54:00,55.2,55.2,30.07,ENE,73,0.0,0.0,100,0.00,,,0.00,VWS V13.01,2013-05-14 12:54:00,
2013-05-14 07:59:00,55.9,55.9,30.07,ENE,73,0.0,0.0,100,0.00,,,0.00,VWS V13.01,2013-05-14 12:59:00,
2013-05-14 08:04:00,56.6,56.6,30.07,West,261,0.0,3.1,100,0.00,,,0.00,VWS V13.01,2013-05-14 13:04:00,
2013-05-14 08:09:00,57.2,57.2,30.07,SW,236,0.0,4.0,100,0.00,,,0.00,VWS V13.01,2013-05-14 13:09:00,
2013-05-14 08:14:00,57.7,57.7,30.07,SW,235,0.0,0.0,100,0.00,,,0.00,VWS V13.01,2013-05-14 13:14:00,
2013-05-14 08:19:00,58.1,58.1,30.07,WSW,247,0.0,0.0,100,0.00,,,0.00,VWS V13.01,2013-05-14 13:19:00,
2013-05-14 08:24:00,58.6,58.6,30.07,WSW,247,0.0,0.0,100,0.00,,,0.00,VWS V13.01,2013-05-14 13:24:00,
2013-05-14 08:29:00,58.4,58.4,30.07,WSW,247,0.0,0.0,100,0.00,,,0.00,VWS V13.01,2013-05-14 13:29:00,
2013-05-14 08:34:00,59.7,54.9,30.07,WSW,249,4.0,4.0,84,0.00,,,0.00,VWS V13.01,2013-05-14 13:34:00,
2013-05-14 08:39:00,60.6,54.4,30.07,WSW,245,0.0,0.0,80,0.00,,,0.00,VWS V13.01,2013-05-14 13:39:00,
2013-05-14 08:44:00,61.5,54.6,30.07,West,274,0.0,0.0,78,0.00,,,0.00,VWS V13.01,2013-05-14 13:44:00,
2013-05-14 08:49:00,62.2,55.6,30.07,SSW,209,0.0,0.0,79,0.00,,,0.00,VWS V13.01,2013-05-14 13:49:00,
2013-05-14 08:54:00,63.1,56.2,30.07,SSW,206,0.0,0.0,78,0.00,,,0.00,VWS V13.01,2013-05-14 13:54:00,
2013-05-14 08:59:00,64.0,56.0,30.07,South,175,0.0,0.0,75,0.00,,,0.00,VWS V13.01,2013-05-14 13:59:00,
2013-05-14 09:04:00,64.6,53.4,30.07,South,187,0.0,0.0,67,0.00,,,0.00,VWS V13.01,2013-05-14 14:04:00,
2013-05-14 09:09:00,65.1,52.2,30.07,SSE,157,0.0,0.0,63,0.00,,,0.00,VWS V13.01,2013-05-14 14:09:00,
2013-05-14 09:14:00,65.6,52.7,30.07,WSW,244,0.0,0.0,63,0.00,,,0.00,VWS V13.01,2013-05-14 14:14:00,
2013-05-14 09:19:00,66.2,53.2,30.07,SSW,211,0.0,0.0,63,0.00,,,0.00,VWS V13.01,2013-05-14 14:19:00,
2013-05-14 09:24:00,66.7,53.3,30.07,SW,234,0.0,3.1,62,0.00,,,0.00,VWS V13.01,2013-05-14 14:24:00,
2013-05-14 09:29:00,67.4,54.4,30.07,South,172,4.0,5.4,63,0.00,,,0.00,VWS V13.01,2013-05-14 14:29:00,
2013-05-14 09:34:00,68.2,55.1,30.07,South,171,3.6,4.9,63,0.00,,,0.00,VWS V13.01,2013-05-14 14:34:00,
2013-05-14 09:39:00,68.9,54.9,30.07,SSW,194,3.1,4.0,61,0.00,,,0.00,VWS V13.01,2013-05-14 14:39:00,
2013-05-14 09:44:00,69.4,54.0,30.07,WSW,242,4.9,6.3,58,0.00,,,0.00,VWS V13.01,2013-05-14 14:44:00,
2013-05-14 09:49:00,69.8,54.3,30.07,West,266,4.5,5.8,58,0.00,,,0.00,VWS V13.01,2013-05-14 14:49:00,
2013-05-14 09:54:00,70.3,54.4,30.07,WSW,249,3.6,3.6,57,0.00,,,0.00,VWS V13.01,2013-05-14 14:54:00,
2013-05-14 09:59:00,71.0,54.1,30.07,SW,227,5.8,5.8,55,0.00,,,0.00,VWS V13.01,2013-05-14 14:59:00,
2013-05-14 10:04:00,71.6,54.6,30.07,SSW,201,3.1,4.9,55,0.00,,,0.00,VWS V13.01,2013-05-14 15:04:00,
2013-05-14 10:09:00,71.6,53.6,30.07,SSW,206,2.7,3.1,53,0.00,,,0.00,VWS V13.01,2013-05-14 15:09:00,
2013-05-14 10:14:00,71.9,54.4,30.07,SSE,167,3.1,4.0,54,0.00,,,0.00,VWS V13.01,2013-05-14 15:14:00,
2013-05-14 10:19:00,72.7,54.6,30.07,SE,139,3.6,4.9,53,0.00,,,0.00,VWS V13.01,2013-05-14 15:19:00,
2013-05-14 10:24:00,73.0,54.4,30.07,WSW,240,4.0,4.0,52,0.00,,,0.00,VWS V13.01,2013-05-14 15:24:00,
2013-05-14 10:29:00,73.4,54.7,30.07,SSW,207,6.3,7.6,52,0.00,,,0.00,VWS V13.01,2013-05-14 15:29:00,
2013-05-14 10:34:00,73.6,54.3,30.07,WSW,239,4.0,4.9,51,0.00,,,0.00,VWS V13.01,2013-05-14 15:34:00,
2013-05-14 10:39:00,73.6,54.9,30.07,SW,220,4.9,4.9,52,0.00,,,0.00,VWS V13.01,2013-05-14 15:39:00,
2013-05-14 10:44:00,73.7,54.5,30.07,WSW,249,4.9,10.1,51,0.00,,,0.00,VWS V13.01,2013-05-14 15:44:00,
2013-05-14 10:49:00,73.7,55.0,30.07,SSW,207,3.6,5.4,52,0.00,,,0.00,VWS V13.01,2013-05-14 15:49:00,
2013-05-14 10:54:00,74.1,54.8,30.07,South,179,7.6,8.1,51,0.00,,,0.00,VWS V13.01,2013-05-14 15:54:00,
2013-05-14 10:59:00,74.6,55.3,30.07,South,184,4.0,5.8,51,0.00,,,0.00,VWS V13.01,2013-05-14 15:59:00,
2013-05-14 11:04:00,75.0,54.6,30.07,South,173,4.9,8.1,49,0.00,,,0.00,VWS V13.01,2013-05-14 16:04:00,
2013-05-14 11:09:00,75.2,55.3,30.07,SSW,202,5.8,5.8,50,0.00,,,0.00,VWS V13.01,2013-05-14 16:09:00,
2013-05-14 11:14:00,75.4,56.0,30.07,WSW,239,3.6,5.4,51,0.00,,,0.00,VWS V13.01,2013-05-14 16:14:00,
2013-05-14 11:19:00,75.9,56.0,30.07,SSW,198,6.3,6.3,50,0.00,,,0.00,VWS V13.01,2013-05-14 16:19:00,
2013-05-14 11:24:00,76.4,56.4,30.07,SW,229,8.1,8.1,50,0.00,,,0.00,VWS V13.01,2013-05-14 16:24:00,
2013-05-14 11:29:00,76.6,56.6,30.07,SW,218,4.9,4.9,50,0.00,,,0.00,VWS V13.01,2013-05-14 16:29:00,
2013-05-14 11:34:00,77.0,54.6,30.07,SW,217,5.8,6.3,46,0.00,,,0.00,VWS V13.01,2013-05-14 16:34:00,
2013-05-14 11:39:00,77.2,56.5,30.07,WSW,243,6.3,6.3,49,0.00,,,0.00,VWS V13.01,2013-05-14 16:39:00,
2013-05-14 11:44:00,77.5,55.7,30.07,SW,226,8.1,8.7,47,0.00,,,0.00,VWS V13.01,2013-05-14 16:44:00,
2013-05-14 11:49:00,77.3,57.3,30.07,SSW,202,3.1,4.9,50,0.00,,,0.00,VWS V13.01,2013-05-14 16:49:00,
2013-05-14 11:54:00,77.5,55.7,30.07,South,180,8.1,10.5,47,0.00,,,0.00,VWS V13.01,2013-05-14 16:54:00,
2013-05-14 11:59:00,77.9,57.2,30.07,SW,214,3.6,3.6,49,0.00,,,0.00,VWS V13.01,2013-05-14 16:59:00,
2013-05-14 12:04:00,78.4,57.7,30.07,WSW,253,5.4,5.4,49,0.00,,,0.00,VWS V13.01,2013-05-14 17:04:00,
2013-05-14 12:09:00,78.6,56.1,30.07,WSW,243,5.8,5.8,46,0.00,,,0.00,VWS V13.01,2013-05-14 17:09:00,
2013-05-14 12:14:00,78.6,55.5,30.04,SW,219,3.1,5.8,45,0.00,,,0.00,VWS V13.01,2013-05-14 17:14:00,
2013-05-14 12:19:00,79.0,56.4,30.04,South,186,13.2,13.2,46,0.00,,,0.00,VWS V13.01,2013-05-14 17:19:00,
2013-05-14 12:24:00,79.0,54.6,30.04,SSW,200,8.7,12.8,43,0.00,,,0.00,VWS V13.01,2013-05-14 17:24:00,
2013-05-14 12:29:00,79.0,55.2,30.07,SW,236,8.3,9.6,44,0.00,,,0.00,VWS V13.01,2013-05-14 17:29:00,
2013-05-14 12:34:00,79.0,55.8,30.07,SW,229,8.3,8.3,45,0.00,,,0.00,VWS V13.01,2013-05-14 17:34:00,
2013-05-14 12:39:00,79.5,55.7,30.07,SW,214,6.3,6.3,44,0.00,,,0.00,VWS V13.01,2013-05-14 17:39:00,
2013-05-14 12:44:00,79.9,56.7,30.07,SSW,198,6.3,8.3,45,0.00,,,0.00,VWS V13.01,2013-05-14 17:44:00,
2013-05-14 12:49:00,79.7,57.1,30.07,SSW,204,6.7,6.7,46,0.00,,,0.00,VWS V13.01,2013-05-14 17:49:00,
2013-05-14 12:54:00,79.9,55.4,30.07,SSW,206,10.5,10.5,43,0.00,,,0.00,VWS V13.01,2013-05-14 17:54:00,
2013-05-14 12:59:00,80.0,56.8,30.04,WSW,244,5.4,6.7,45,0.00,,,0.00,VWS V13.01,2013-05-14 17:59:00,
2013-05-14 13:04:00,80.8,57.5,30.04,SE,143,4.0,5.8,45,0.00,,,0.00,VWS V13.01,2013-05-14 18:04:00,
2013-05-14 13:08:00,80.8,56.2,30.04,South,191,5.8,8.1,43,0.00,,,0.00,VWS V13.01,2013-05-14 18:08:00,
2013-05-14 13:13:00,80.8,55.5,30.04,SW,229,5.4,5.4,42,0.00,,,0.00,VWS V13.01,2013-05-14 18:13:00,
2013-05-14 13:18:00,81.1,56.5,30.04,SW,219,6.3,8.3,43,0.00,,,0.00,VWS V13.01,2013-05-14 18:18:00,
2013-05-14 13:23:00,81.5,56.2,30.04,SW,233,6.3,6.3,42,0.00,,,0.00,VWS V13.01,2013-05-14 18:23:00,
2013-05-14 13:28:00,81.7,57.0,30.04,WSW,238,6.3,8.7,43,0.00,,,0.00,VWS V13.01,2013-05-14 18:28:00,
2013-05-14 13:33:00,81.7,57.0,30.04,SW,224,3.6,6.3,43,0.00,,,0.00,VWS V13.01,2013-05-14 18:33:00,
2013-05-14 13:38:00,81.8,57.2,30.04,WSW,245,5.4,5.4,43,0.00,,,0.00,VWS V13.01,2013-05-14 18:38:00,
2013-05-14 13:43:00,82.2,56.2,30.04,South,183,5.4,5.4,41,0.00,,,0.00,VWS V13.01,2013-05-14 18:43:00,
2013-05-14 13:48:00,82.2,56.8,30.04,West,277,5.8,5.8,42,0.00,,,0.00,VWS V13.01,2013-05-14 18:48:00,
2013-05-14 13:53:00,82.7,58.6,30.04,South,180,3.6,8.3,44,0.00,,,0.00,VWS V13.01,2013-05-14 18:53:00,
2013-05-14 13:58:00,82.9,56.8,30.01,SSW,212,7.2,7.2,41,0.00,,,0.00,VWS V13.01,2013-05-14 18:58:00,
2013-05-14 14:03:00,83.1,57.0,30.01,SSW,207,4.9,7.6,41,0.00,,,0.00,VWS V13.01,2013-05-14 19:03:00,
2013-05-14 14:08:00,83.3,57.2,30.01,South,184,4.9,5.8,41,0.00,,,0.00,VWS V13.01,2013-05-14 19:08:00,
2013-05-14 14:13:00,83.5,56.6,30.01,West,261,8.7,8.7,40,0.00,,,0.00,VWS V13.01,2013-05-14 19:13:00,
2013-05-14 14:18:00,83.5,58.6,30.01,SSW,209,3.6,5.4,43,0.00,,,0.00,VWS V13.01,2013-05-14 19:18:00,
2013-05-14 14:23:00,83.6,56.1,30.01,WSW,246,8.3,8.7,39,0.00,,,0.00,VWS V13.01,2013-05-14 19:23:00,
2013-05-14 14:28:00,83.8,57.0,30.01,SW,227,7.6,9.6,40,0.00,,,0.00,VWS V13.01,2013-05-14 19:28:00,
2013-05-14 14:33:00,84.2,56.6,30.01,SW,229,5.8,8.7,39,0.00,,,0.00,VWS V13.01,2013-05-14 19:33:00,
2013-05-14 14:38:00,84.4,56.7,30.01,WSW,245,8.7,8.7,39,0.00,,,0.00,VWS V13.01,2013-05-14 19:38:00,
2013-05-14 14:43:00,84.5,56.9,30.01,SW,231,5.8,5.8,39,0.00,,,0.00,VWS V13.01,2013-05-14 19:43:00,
2013-05-14 14:48:00,84.7,57.0,30.01,WSW,253,5.4,5.8,39,0.00,,,0.00,VWS V13.01,2013-05-14 19:48:00,
2013-05-14 14:53:00,84.9,57.2,30.01,SW,226,5.8,8.7,39,0.00,,,0.00,VWS V13.01,2013-05-14 19:53:00,
2013-05-14 14:58:00,85.1,57.4,30.01,SW,216,8.1,8.1,39,0.00,,,0.00,VWS V13.01,2013-05-14 19:58:00,
2013-05-14 15:03:00,85.1,57.4,30.01,WSW,247,5.8,8.1,39,0.00,,,0.00,VWS V13.01,2013-05-14 20:03:00,
2013-05-14 15:08:00,85.1,57.4,30.01,SSW,202,5.8,8.3,39,0.00,,,0.00,VWS V13.01,2013-05-14 20:08:00,
2013-05-14 15:13:00,85.1,57.4,30.01,WSW,247,8.7,8.7,39,0.00,,,0.00,VWS V13.01,2013-05-14 20:13:00,
2013-05-14 15:18:00,84.9,56.5,30.01,SSW,211,4.0,8.3,38,0.00,,,0.00,VWS V13.01,2013-05-14 20:18:00,
2013-05-14 15:23:00,85.1,56.7,30.01,WSW,243,5.8,10.5,38,0.00,,,0.00,VWS V13.01,2013-05-14 20:23:00,
2013-05-14 15:28:00,85.3,57.5,30.01,SW,234,8.7,8.7,39,0.00,,,0.00,VWS V13.01,2013-05-14 20:28:00,
2013-05-14 15:33:00,85.4,57.7,30.01,SW,224,5.4,8.7,39,0.00,,,0.00,VWS V13.01,2013-05-14 20:33:00,
2013-05-14 15:38:00,85.1,56.7,30.01,WSW,258,7.2,12.3,38,0.00,,,0.00,VWS V13.01,2013-05-14 20:38:00,
2013-05-14 15:43:00,85.3,57.5,29.98,SW,231,5.8,6.3,39,0.00,,,0.00,VWS V13.01,2013-05-14 20:43:00,
2013-05-14 15:48:00,85.6,57.1,29.98,SW,221,3.1,6.3,38,0.00,,,0.00,VWS V13.01,2013-05-14 20:48:00,
2013-05-14 15:53:00,86.0,57.4,29.98,West,266,8.1,8.1,38,0.00,,,0.00,VWS V13.01,2013-05-14 20:53:00,
2013-05-14 15:58:00,85.8,57.3,29.98,SSW,199,4.0,8.1,38,0.00,,,0.00,VWS V13.01,2013-05-14 20:58:00,
2013-05-14 16:03:00,86.2,57.6,29.98,WSW,237,5.8,8.1,38,0.00,,,0.00,VWS V13.01,2013-05-14 21:03:00,
2013-05-14 16:08:00,86.2,57.6,29.98,SW,229,7.6,8.7,38,0.00,,,0.00,VWS V13.01,2013-05-14 21:08:00,
2013-05-14 16:13:00,86.0,57.4,29.98,SW,235,8.1,8.1,38,0.00,,,0.00,VWS V13.01,2013-05-14 21:13:00,
2013-05-14 16:18:00,86.2,57.6,29.98,SW,229,5.8,5.8,38,0.00,,,0.00,VWS V13.01,2013-05-14 21:18:00,
2013-05-14 16:23:00,86.2,57.6,29.98,SSW,209,4.9,5.4,38,0.00,,,0.00,VWS V13.01,2013-05-14 21:23:00,
2013-05-14 16:28:00,86.2,57.6,29.98,SW,235,8.3,8.3,38,0.00,,,0.00,VWS V13.01,2013-05-14 21:28:00,
2013-05-14 16:33:00,86.0,57.4,29.98,SW,232,10.1,10.1,38,0.00,,,0.00,VWS V13.01,2013-05-14 21:33:00,
2013-05-14 16:38:00,85.8,57.3,29.98,WSW,241,4.9,8.1,38,0.00,,,0.00,VWS V13.01,2013-05-14 21:38:00,
2013-05-14 16:43:00,85.8,57.3,29.98,SW,231,5.8,6.3,38,0.00,,,0.00,VWS V13.01,2013-05-14 21:43:00,
2013-05-14 16:48:00,86.0,57.4,29.98,SW,236,4.5,4.5,38,0.00,,,0.00,VWS V13.01,2013-05-14 21:48:00,
2013-05-14 16:53:00,86.3,57.8,29.98,SW,228,6.3,7.6,38,0.00,,,0.00,VWS V13.01,2013-05-14 21:53:00,
2013-05-14 16:58:00,86.3,57.8,29.98,West,269,7.6,8.1,38,0.00,,,0.00,VWS V13.01,2013-05-14 21:58:00,
2013-05-14 17:03:00,86.3,57.8,29.98,WSW,246,5.4,5.4,38,0.00,,,0.00,VWS V13.01,2013-05-14 22:03:00,
2013-05-14 17:08:00,86.5,57.9,29.98,West,264,5.4,5.4,38,0.00,,,0.00,VWS V13.01,2013-05-14 22:08:00,
2013-05-14 17:13:00,86.7,58.1,29.98,SW,221,7.6,8.7,38,0.00,,,0.00,VWS V13.01,2013-05-14 22:13:00,
2013-05-14 17:18:00,86.2,57.6,29.95,SW,227,4.0,5.4,38,0.00,,,0.00,VWS V13.01,2013-05-14 22:18:00,
2013-05-14 17:23:00,86.2,57.6,29.95,SW,231,5.8,5.8,38,0.00,,,0.00,VWS V13.01,2013-05-14 22:23:00,
2013-05-14 17:28:00,86.2,58.3,29.95,WSW,242,3.1,3.1,39,0.00,,,0.00,VWS V13.01,2013-05-14 22:28:00,
2013-05-14 17:33:00,86.2,57.6,29.95,South,171,3.1,8.3,38,0.00,,,0.00,VWS V13.01,2013-05-14 22:33:00,
2013-05-14 17:38:00,86.2,58.3,29.95,SSW,198,6.3,11.0,39,0.00,,,0.00,VWS V13.01,2013-05-14 22:38:00,
2013-05-14 17:43:00,85.8,57.3,29.95,South,171,8.3,8.3,38,0.00,,,0.00,VWS V13.01,2013-05-14 22:43:00,
2013-05-14 17:48:00,85.6,57.1,29.95,SSW,192,5.8,6.3,38,0.00,,,0.00,VWS V13.01,2013-05-14 22:48:00,
2013-05-14 17:53:00,85.6,57.1,29.95,South,188,7.6,7.6,38,0.00,,,0.00,VWS V13.01,2013-05-14 22:53:00,
2013-05-14 17:58:00,85.4,55.5,29.95,SSW,197,6.3,8.3,36,0.00,,,0.00,VWS V13.01,2013-05-14 22:58:00,
2013-05-14 18:03:00,85.3,56.8,29.95,SSW,192,5.8,10.1,38,0.00,,,0.00,VWS V13.01,2013-05-14 23:03:00,
2013-05-14 18:08:00,85.1,56.7,29.95,SSW,192,6.3,6.3,38,0.00,,,0.00,VWS V13.01,2013-05-14 23:08:00,
2013-05-14 18:13:00,84.9,56.5,29.95,SSW,197,4.0,10.5,38,0.00,,,0.00,VWS V13.01,2013-05-14 23:13:00,
2013-05-14 18:18:00,84.7,56.3,29.95,SSW,200,2.7,2.7,38,0.00,,,0.00,VWS V13.01,2013-05-14 23:18:00,
2013-05-14 18:23:00,84.5,56.2,29.95,SSE,161,6.3,6.3,38,0.00,,,0.00,VWS V13.01,2013-05-14 23:23:00,
2013-05-14 18:28:00,84.4,56.0,29.95,SSW,201,4.0,4.0,38,0.00,,,0.00,VWS V13.01,2013-05-14 23:28:00,
2013-05-14 18:33:00,84.2,55.8,29.95,South,184,5.8,5.8,38,0.00,,,0.00,VWS V13.01,2013-05-14 23:33:00,
2013-05-14 18:38:00,83.8,55.5,29.95,SW,217,4.9,5.4,38,0.00,,,0.00,VWS V13.01,2013-05-14 23:38:00,
2013-05-14 18:43:00,83.6,55.4,29.95,SSW,209,5.8,5.8,38,0.00,,,0.00,VWS V13.01,2013-05-14 23:43:00,
2013-05-14 18:48:00,83.6,55.4,29.95,SW,234,3.1,3.6,38,0.00,,,0.00,VWS V13.01,2013-05-14 23:48:00,
2013-05-14 18:53:00,83.3,55.0,29.95,SSW,193,3.6,3.6,38,0.00,,,0.00,VWS V13.01,2013-05-14 23:53:00,
2013-05-14 18:58:00,83.1,55.6,29.95,SW,215,3.6,3.6,39,0.00,,,0.00,VWS V13.01,2013-05-14 23:58:00,
2013-05-14 19:03:00,82.7,55.3,29.95,South,191,2.7,3.6,39,0.00,,,0.00,VWS V13.01,2013-05-15 00:03:00,
2013-05-14 19:08:00,82.6,55.1,29.95,South,188,4.0,4.0,39,0.00,,,0.00,VWS V13.01,2013-05-15 00:08:00,
2013-05-14 19:13:00,82.0,54.6,29.95,South,175,2.2,2.2,39,0.00,,,0.00,VWS V13.01,2013-05-15 00:13:00,
2013-05-14 19:18:00,81.8,55.2,29.95,South,175,0.0,0.0,40,0.00,,,0.00,VWS V13.01,2013-05-15 00:18:00,
2013-05-14 19:23:00,81.8,55.2,29.95,South,180,2.2,2.2,40,0.00,,,0.00,VWS V13.01,2013-05-15 00:23:00,
2013-05-14 19:27:00,81.7,55.0,29.95,SSW,195,3.1,3.1,40,0.00,,,0.00,VWS V13.01,2013-05-15 00:27:00,
2013-05-14 19:32:00,81.3,54.7,29.95,SSW,205,3.1,3.1,40,0.00,,,0.00,VWS V13.01,2013-05-15 00:32:00,
2013-05-14 19:37:00,81.1,54.5,29.95,South,190,2.7,3.1,40,0.00,,,0.00,VWS V13.01,2013-05-15 00:37:00,
2013-05-14 19:42:00,80.6,54.7,29.95,SSE,168,3.6,3.6,41,0.00,,,0.00,VWS V13.01,2013-05-15 00:42:00,
2013-05-14 19:47:00,80.0,54.9,29.95,SSE,147,3.1,3.1,42,0.00,,,0.00,VWS V13.01,2013-05-15 00:47:00,
2013-05-14 19:52:00,79.5,54.4,29.95,SSE,165,3.6,3.6,42,0.00,,,0.00,VWS V13.01,2013-05-15 00:52:00,
2013-05-14 19:57:00,79.0,53.9,29.95,SSE,153,0.0,0.0,42,0.00,,,0.00,VWS V13.01,2013-05-15 00:57:00,
2013-05-14 20:02:00,78.6,53.6,29.95,SSE,153,0.0,0.0,42,0.00,,,0.00,VWS V13.01,2013-05-15 01:02:00,
2013-05-14 20:07:00,78.2,53.9,29.95,SE,134,0.0,0.0,43,0.00,,,0.00,VWS V13.01,2013-05-15 01:07:00,
2013-05-14 20:12:00,77.5,53.3,29.95,SE,143,0.0,0.0,43,0.00,,,0.00,VWS V13.01,2013-05-15 01:12:00,
2013-05-14 20:17:00,77.2,53.0,29.95,SE,143,0.0,0.0,43,0.00,,,0.00,VWS V13.01,2013-05-15 01:17:00,
2013-05-14 20:22:00,76.6,53.1,29.95,SE,143,0.0,0.0,44,0.00,,,0.00,VWS V13.01,2013-05-15 01:22:00,
2013-05-14 20:27:00,76.3,52.8,29.95,SSE,163,0.0,0.0,44,0.00,,,0.00,VWS V13.01,2013-05-15 01:27:00,
2013-05-14 20:32:00,75.9,53.1,29.95,SE,130,2.7,2.7,45,0.00,,,0.00,VWS V13.01,2013-05-15 01:32:00,
2013-05-14 20:37:00,75.7,52.3,29.95,SE,124,0.0,0.0,44,0.00,,,0.00,VWS V13.01,2013-05-15 01:37:00,
2013-05-14 20:42:00,75.4,53.2,29.95,SSW,202,2.7,3.6,46,0.00,,,0.00,VWS V13.01,2013-05-15 01:42:00,
2013-05-14 20:47:00,75.0,52.8,29.95,South,176,0.0,3.6,46,0.00,,,0.00,VWS V13.01,2013-05-15 01:47:00,
2013-05-14 20:52:00,74.6,53.7,29.95,South,185,2.7,2.7,48,0.00,,,0.00,VWS V13.01,2013-05-15 01:52:00,
2013-05-14 20:57:00,74.3,53.3,29.95,SSW,198,2.2,2.2,48,0.00,,,0.00,VWS V13.01,2013-05-15 01:57:00,
2013-05-14 21:02:00,74.1,52.6,29.95,SSE,150,0.0,0.0,47,0.00,,,0.00,VWS V13.01,2013-05-15 02:02:00,
2013-05-14 21:07:00,73.9,52.4,29.95,SSE,147,0.0,3.1,47,0.00,,,0.00,VWS V13.01,2013-05-15 02:07:00,
2013-05-14 21:12:00,73.7,53.4,29.95,South,186,2.7,3.6,49,0.00,,,0.00,VWS V13.01,2013-05-15 02:12:00,
2013-05-14 21:17:00,73.6,53.2,29.98,SSE,153,0.0,0.0,49,0.00,,,0.00,VWS V13.01,2013-05-15 02:17:00,
2013-05-14 21:22:00,73.0,53.8,29.98,SSE,153,0.0,0.0,51,0.00,,,0.00,VWS V13.01,2013-05-15 02:22:00,
2013-05-14 21:27:00,72.5,53.9,29.98,SSW,213,0.0,0.0,52,0.00,,,0.00,VWS V13.01,2013-05-15 02:27:00,
2013-05-14 21:32:00,71.9,53.9,29.98,WSW,258,0.0,0.0,53,0.00,,,0.00,VWS V13.01,2013-05-15 02:32:00,
2013-05-14 21:37:00,70.9,52.9,29.98,WSW,258,0.0,0.0,53,0.00,,,0.00,VWS V13.01,2013-05-15 02:37:00,
2013-05-14 21:42:00,70.3,52.9,29.98,WSW,258,0.0,0.0,54,0.00,,,0.00,VWS V13.01,2013-05-15 02:42:00,
2013-05-14 21:47:00,70.0,53.1,29.98,WSW,258,0.0,0.0,55,0.00,,,0.00,VWS V13.01,2013-05-15 02:47:00,
2013-05-14 21:52:00,69.2,54.3,29.98,WNW,292,0.0,0.0,59,0.00,,,0.00,VWS V13.01,2013-05-15 02:52:00,
2013-05-14 21:57:00,68.0,54.5,29.98,NNW,333,0.0,0.0,62,0.00,,,0.00,VWS V13.01,2013-05-15 02:57:00,
2013-05-14 22:02:00,67.1,54.1,29.98,NNW,338,0.0,0.0,63,0.00,,,0.00,VWS V13.01,2013-05-15 03:02:00,
2013-05-14 22:07:00,66.4,54.2,29.98,NNW,338,0.0,0.0,65,0.00,,,0.00,VWS V13.01,2013-05-15 03:07:00,
2013-05-14 22:12:00,66.0,53.9,29.98,NNW,338,0.0,0.0,65,0.00,,,0.00,VWS V13.01,2013-05-15 03:12:00,
2013-05-14 22:17:00,65.6,54.0,29.98,NNW,338,0.0,0.0,66,0.00,,,0.00,VWS V13.01,2013-05-15 03:17:00,
2013-05-14 22:22:00,65.1,53.9,29.98,NNW,338,0.0,0.0,67,0.00,,,0.00,VWS V13.01,2013-05-15 03:22:00,
2013-05-14 22:27:00,64.7,54.0,29.98,NNW,338,0.0,0.0,68,0.00,,,0.00,VWS V13.01,2013-05-15 03:27:00,
2013-05-14 22:32:00,64.4,54.0,29.98,NNW,339,0.0,0.0,69,0.00,,,0.00,VWS V13.01,2013-05-15 03:32:00,
2013-05-14 22:37:00,64.0,54.4,29.98,NNW,339,0.0,0.0,71,0.00,,,0.00,VWS V13.01,2013-05-15 03:37:00,
2013-05-14 22:42:00,63.8,54.7,29.98,NNW,339,0.0,0.0,72,0.00,,,0.00,VWS V13.01,2013-05-15 03:42:00,
2013-05-14 22:47:00,63.5,54.3,29.98,NNW,339,0.0,0.0,72,0.00,,,0.00,VWS V13.01,2013-05-15 03:47:00,
2013-05-14 22:52:00,63.1,54.7,29.98,North,349,0.0,0.0,74,0.00,,,0.00,VWS V13.01,2013-05-15 03:52:00,
2013-05-14 22:57:00,62.8,54.4,29.98,North,351,0.0,0.0,74,0.00,,,0.00,VWS V13.01,2013-05-15 03:57:00,
2013-05-14 23:01:00,62.6,54.6,29.98,North,10,0.0,0.0,75,0.00,,,0.00,VWS V13.01,2013-05-15 04:01:00,
2013-05-14 23:06:00,62.2,54.2,29.98,North,10,0.0,0.0,75,0.00,,,0.00,VWS V13.01,2013-05-15 04:06:00,
2013-05-14 23:11:00,62.0,54.8,29.98,North,10,0.0,0.0,77,0.00,,,0.00,VWS V13.01,2013-05-15 04:11:00,
2013-05-14 23:16:00,61.7,55.1,29.98,North,10,0.0,0.0,79,0.00,,,0.00,VWS V13.01,2013-05-15 04:16:00,
2013-05-14 23:21:00,61.1,54.9,29.98,North,10,0.0,0.0,80,0.00,,,0.00,VWS V13.01,2013-05-15 04:21:00,
2013-05-14 23:26:00,61.0,55.1,29.98,NNE,17,0.0,0.0,81,0.00,,,0.00,VWS V13.01,2013-05-15 04:26:00,
2013-05-14 23:31:00,60.8,55.3,29.98,NNE,17,0.0,0.0,82,0.00,,,0.00,VWS V13.01,2013-05-15 04:31:00,
2013-05-14 23:36:00,60.8,54.9,29.98,NNE,17,0.0,0.0,81,0.00,,,0.00,VWS V13.01,2013-05-15 04:36:00,
2013-05-14 23:41:00,60.6,54.8,29.98,NNE,17,0.0,0.0,81,0.00,,,0.00,VWS V13.01,2013-05-15 04:41:00,
2013-05-14 23:46:00,60.6,54.8,29.98,NNE,17,0.0,0.0,81,0.00,,,0.00,VWS V13.01,2013-05-15 04:46:00,
2013-05-14 23:51:00,60.4,54.6,29.98,NNE,17,0.0,0.0,81,0.00,,,0.00,VWS V13.01,2013-05-15 04:51:00,
2013-05-14 23:56:00,60.2,54.7,29.98,NNE,17,0.0,0.0,82,0.00,,,0.00,VWS V13.01,2013-05-15 04:56:00,